Regional Weather Roundup
Issued by NWS Wakefield, VA

Home | Current Version | Previous Version | Graphics & Text | Print | Product List | Glossary On
Versions: 1 2 3 4 5 6 7 8 9 10 11 12 13 14 15 16 17 18 19 20 21 22 23 24 25 26 27 28 29 30 31 32 33 34 35 36 37 38 39 40 41 42 43 44 45 46 47 48 49 50
000
ASUS41 KAKQ 271314
RWRAKQ

REGIONAL WEATHER ROUNDUP
NATIONAL WEATHER SERVICE WAKEFIELD VA
900 AM EDT WED MAY 27 2015

Note: "fair" indicates few or no clouds below 12,000 feet with no
significant weather and/or obstructions to visibility. * = Denotes
station may not report precipitation (e.g., rain,snow,etc.),
thunder or fog.

VAZ042-051-052>054-056-271400-
NORTHERN VIRGINIA

CITY           SKY/WX    TMP DP  RH WIND       PRES   REMARKS
WASH NATIONAL  CLOUDY    77  69  76 S10       30.18S
DULLES         CLOUDY    74  68  81 S7        30.17R
FORT BELVOIR   CLOUDY    75  69  82 S5        30.18R
QUANTICO       PTSUNNY   76  69  79 SW8       30.19R
FREDERICKSBRG* MOSUNNY   79  70  74 S10G16    30.17F
STAFFORD*      PTSUNNY   76  68  76 S10       30.22S
WARRENTON      CLOUDY    76  71  84 SW8       30.17S
CULPEPER*      CLOUDY    74  68  81 SW7       30.18S
MANASSAS*      CLOUDY    75  70  83 S9          N/A
LEESBURG*      CLOUDY    75  72  88 S12       30.18S
WINCHESTER     SUNNY     77  63  61 S6        30.16S
FRONT ROYAL*   FAIR      73  68  83 S3        30.16R
LURAY*         FAIR      79  70  73 SW8       30.17R
$$

VAZ048-049-060>072-079>083-271400-
CENTRAL AND SOUTH CENTRAL VIRGINIA

CITY           SKY/WX    TMP DP  RH WIND       PRES   REMARKS
RICHMOND       MOSUNNY   79  69  71 S10       30.21R
CHESTERFIELD*  NOT AVBL
PETERSBURG*    MOSUNNY   78  74  88 S7        30.23R
HANOVER        SUNNY     77  68  73 S12       30.22R
TAPPAHANNOCK*  MOSUNNY   77  65  65 S6        30.21S
QUINTON*       FAIR      76  69  79 SW7       30.21S
CHARLOTTSVILLE PTSUNNY   75  68  78 S10       30.18S
GORDONSVILLE*  PTSUNNY   75  68  78 SW8       30.18R
ORANGE*        PTSUNNY   77  70  78 S13       30.20S
LOUISA*        SUNNY     77  68  73 S8        30.19R
BUMPASS*       FAIR      76  68  78 S5        30.20R
FARMVILLE*     SUNNY     77  65  65 S10       30.20R
CREWE*         FAIR      75  65  70 SW6       30.22S
FORT PICKETT*  FAIR      75  68  78 SW10G25   30.23S
CHASE CITY*    FAIR      77  70  79 SW5       30.25R
CLARKSVILLE*   FAIR      75  68  78 SW9       30.25R
SOUTH HILL*    PTSUNNY   74  69  82 SW8       30.30R
LAWRENCEVILLE* PTSUNNY   75  70  83 SW8       30.24R
EMPORIA*       MOSUNNY   75  68  78 S6        30.25S
$$

VAZ088>098-271400-
SOUTHEAST VIRGINIA

CITY           SKY/WX    TMP DP  RH WIND       PRES   REMARKS
NORFOLK        SUNNY     79  67  66 SW17      30.24R
VIRGINIA BEACH PTSUNNY   79  68  69 SW12      30.24R
NORFOLK NAVAL  MOSUNNY   82  68  62 SW12G20   30.25R
WEST POINT*    MOSUNNY   79  67  67 SW9       30.24R
SALUDA*        PTSUNNY   75  68  79 SW7       30.22R
NEWPORT NEWS   MOSUNNY   81  69  67 SW16      30.24R
LANGLEY AFB    SUNNY     76  69  79 SW14      30.22R
FORT EUSTIS    PTSUNNY   76  74  93 SW8       30.22R
WILLIAMSBURG*  SUNNY     77  72  83 S9        30.24S
HR EXEC AP*    FAIR      79  70  73 SW10      30.26S
FRANKLIN*      PTSUNNY   76  69  79 S8        30.25R
WAKEFIELD      PTSUNNY   77  69  76 S8        30.24R
$$

VAZ020-022-025-037-045-271400-
WEST CENTRAL AND SOUTHWEST VIRGINIA

CITY           SKY/WX    TMP DP  RH WIND       PRES   REMARKS
STAUNTON*      MOSUNNY   76  67  74 S7        30.22R
WAYNESBORO*    FAIR      73  65  76 S5        30.22R
HOT SPRINGS VA CLOUDY    63  62  98 W16       30.29S
LYNCHBURG      PTSUNNY   74  65  73 SW7       30.23S
DANVILLE       MOSUNNY   75  64  68 SW8       30.25R
SOUTH BOSTON*  FAIR      75  65  71 MISG      30.24S
MARTINSVILLE   CLOUDY    69  68  99 CALM      30.28R
ROANOKE        CLOUDY    71  63  75 SW3       30.25R
BLACKSBURG     CLOUDY    67  63  87 CALM      30.30R
DUBLIN*        CLOUDY    70  66  85 SW6       30.29R
MARION*        CLOUDY    68  63  83 W14       30.31S
HILLSVILLE*    PTSUNNY   64  61  88 S3        30.31R
RICHLANDS*     PTSUNNY   66  60  83 SW8       30.29S
WISE*          MOSUNNY   66  57  72 SW8       30.29S
ABINGDON*      CLOUDY    69  64  83 SW5       30.28S
$$

MDZ021>025-VAZ099-100-271400-
SOUTHERN MARYLAND AND THE DELMARVA PENINSULA

CITY           SKY/WX    TMP DP  RH WIND       PRES   REMARKS
PATUXENT RIVER PTSUNNY   76  68  76 SW10G20   30.19S
BAY BRIDGE APT   N/A    N/A N/A N/A S9        30.19R
LEONARDTOWN    PTSUNNY   73  66  78 S7        30.21F
DOVER          PTSUNNY   77  72  83 SW15      30.17R
GEORGETOWN     CLOUDY    75  68  78 S13       30.22S
EASTON         CLOUDY    75  72  88 SW12      30.24R
CAMBRIDGE      CLOUDY    77  70  78 S9        30.21R
SALISBURY      CLOUDY    74  68  81 S12       30.23R
OCEAN CITY     MOSUNNY   73  66  78 SW13      30.24R
WALLOPS ISLAND PTSUNNY   72  67  84 S14       30.25R
ACCOMACK*      MOSUNNY   77  70  78 SW12      30.24R
$$

NCZ012>017-030>032-271400-
NORTH CENTRAL AND EASTERN NORTH CAROLINA

CITY           SKY/WX    TMP DP  RH WIND       PRES   REMARKS
ROANOKE RAPIDS CLOUDY    75  70  83 SW10      30.25R
RALEIGH        CLOUDY    73  68  84 SW13      30.28R
ELIZABETH CITY PTSUNNY   76  68  76 S10       30.27R
AHOSKIE*       CLOUDY    74  69  82 CALM      30.26R
EDENTON*       CLOUDY    76  69  80 S8        30.27R
CURRITUCK*     NOT AVBL
KILL DEVIL HLS SUNNY     77  65  68 S7        30.27R
MANTEO         SUNNY     75  66  73 S15       30.29R
CAPE HATTERAS  SUNNY     75  62  64 S10       30.30R
TARBORO*       CLOUDY    76  70  82 SW5       30.27R
GOLDSBORO      PTSUNNY   77  72  83 SW9       30.25R
WASHINGTON     MOSUNNY   74  69  82 S6        30.27S
GREENVILLE     MOSUNNY   77  72  83 S10       30.27R
NEW BERN       CLOUDY    80  69  69 S9        30.29R
WILMINGTON     MOSUNNY   79  67  66 S6        30.28R
$$

VAZ048-271400-
ELSEWHERE

CITY           SKY/WX    TMP DP  RH WIND       PRES   REMARKS
HARRISBURG PA  PTSUNNY   77  68  73 SW10      30.14S
BALTIMORE      PTSUNNY   76  69  79 S7        30.16S
ANNAPOLIS      CLOUDY    75  68  78 S6        30.18S
ANDREWS AFB    CLOUDY    75  69  83 S9        30.18R
PHILADELPHIA   CLOUDY    76  68  76 SW13G22   30.18R
HENDERSON NC   PTSUNNY   74  66  76 SW9       30.27R
GREENSBORO     MOSUNNY   72  64  76 SW9       30.26R
ROCKY MOUNT    CLOUDY    76  70  82 SW10      30.26R
$$

VAZ100-271400-
MARINE

STATION/POSITION TIME  TEMP    WIND        PRES    WAVE   SWELL
                       AIR SEA DIR/SP/G            HT/PER HT/PER
                 (UTC) (F)     (DEG/KT/KT) (MB)    (FT/S) (FT/S)
BRANDYWINE LGT   1200   65 65  180/ 13/ 13 1022.8R
CAPE MAY NJ      1200   66 69  160/  9/ 12 1022.6R
LEWES DE         1200   74 63  210/ 10/ 17 1022.6R
15NM E FENWICK I 1250   64 62              1023.6R   3/ 6
OCEAN-CITY-INLET 1200   63 60  210/ 13/ 14 1023.4R
WACHAPREAGUE VA  1200   73 73  220/ 11/ 15 1023.7R
THOMAS POINT MD  1300   70 68  170/ 13/ 15 1022.4S
GOOSES REEF MD   1300   72 68  210/  8/ 10 1023.2R   1/ 2
COVE POINT MD    1200   69     190/  8/ 10 1023.1R
SOLOMONS ISLAND  1200      70                N/A
BISHOPS HEAD MD  1200   72 72  190/ 13/ 16 1022.5R
PINEY POINT MD   1200          230/ 11/ 12   N/A
CAMBRIDGE MD     1200   73 71  180/  7/ 12 1022.4R
LEWISETTA VA     1200   74 73              1022.3R
RAPPAHANNOCK LGT 1200          180/ 14/ 15 1023.8R
STINGRAY PT      1300   74 71  210/ 10/ 12 1023.4R   1/ 2
YORK RVR RNG VA  1200   73     210/ 11/ 13 1022.8R
YORKTOWN VA      1200   73 71  220/ 13/ 16 1022.9R
JAMESTOWN VA     1300   74 75  220/ 10/ 12 1022.7R
DOMINION TERM VA 1200   72     220/ 13/ 15 1023.5R
KIPTOPEKE VA     1200      74  180/ 10/ 11   N/A
CHES BAY BRIDGE  1200   74 68  180/ 14/ 19 1023.0R
CAPE HENRY VA    1200   74     190/ 11/ 18 1022.4R
CHESAPEAKE LGHT  1200   67     180/ 21/ 22 1024.3R
WILLOUBY STN VA  1200   73     200/ 17/ 19 1024.0R
CAPE HENRY BUOY  1228      62                N/A     3/ 6
1ST LANDING BUOY 1300      69              1023.7R
CAPE CHARLES BUO 1226      65                N/A     2/ 5   2/ 7
OFFSHORE WE BUOY 1211      65                N/A     3/ 6   2/ 8
64NM E OF VA BCH 1250   66 63  170/ 10/ 12 1025.3R   3/ 5   3/ 5
DUCK PIER NC     1200   73 56  180/ 15/ 17 1023.6R
44100 DUCK FRF   1224      64                N/A     3/ 6
44056 DUCK FRF   1211      61                N/A     2/ 5
OREGON INLET NC  1200   74 75  170/ 11/ 14 1025.3R
HATTERAS NC      1200   75 75  160/  9/ 12 1025.1R
DIAMOND SHLS NC  1250   75 76  170/ 10/ 12 1025.9R   3/ 5   2/ 5
CAPE LOOKOUT NC  1300   74     150/  7/  8 1025.3R
$$


USA.gov is the U.S. government's official web portal to all federal, state and local government web resources and services.